sat.trackr.live / text

‹ back to catalog

STARLINK-5667

NORAD 55337 · 2023-013G

PAYLOAD ACTIVE UNKNOWN

§ Identity

Operator
Country
US
Launch date
2023-01-26
Launch site
AFETR
Launch vehicle
Mass (kg)
RCS (m²)

Purposes: comms

External: N2YO · Heavens-Above · Gunter

§ Orbital elements

Epoch: 2026-09-19T17:29:49.392096Z

Period
94.27 min
Inclination
43.0021°
Eccentricity
0.0001238
Mean motion
15.27575761 rev/d
Perigee alt
482.2 km
Apogee alt
483.9 km
Semi-major
6,861.2 km
B*
1.3632e-5
RAAN
273.2968°
Arg perigee
265.5260°
Mean anomaly
94.5450°
Rev number
20,151

§ Raw data

STARLINK-56671 55337U 23013G   26262.72904389  .00000113  00000+0  13632-4 0  99952 55337  43.0021 273.2968 0001238 265.5260  94.5450 15.27575761201514

JSON: /api/v1/satellites/55337 · /tle

For live sub-satellite position, see the globe view (requires WebGL).

§ Visibility from observer

Set your observer location to see the next 7 days of passes ≥ 10°. The values pass through the URL so the page stays shareable.

No JS? Fill the form by hand. The geolocation button needs JavaScript.